Location: Asheville, NC
(35.6000°N, 82.5500°W)
Time: 13:40:10
(UTC-05:00)

Vanguard 2 Rocket - Pass Details

Date: 16 February 2018
Orbit: 555 x 3327 km, 32.9° (Epoch: 21 February)

Event Time Altitude Azimuth Distance (km) Brightness Sun altitude
Rises 03:48:46 0° 274° (W) 6,691 - -42.4°
Reaches altitude 10° 03:52:50 10° 274° (W) 5,901 - -41.6°
Exits shadow 04:07:46 62° 258° (WSW) 3,606 9.4 -38.7°
Maximum altitude 04:12:42 78° 192° (SSW) 3,347 9.4 -37.7°
Drops below altitude 10° 04:30:45 10° 110° (ESE) 5,438 11.5 -34.1°
Sets 04:34:19 0° 109° (ESE) 6,170 12.0 -33.4°
